Regional Weather Roundup
Issued by NWS Wakefield, VA

Home | Current Version | Previous Version | Text Only | Print | Product List | Glossary Off
Versions: 1 2 3 4 5 6 7 8 9 10 11 12 13 14 15 16 17 18 19 20 21 22 23 24 25 26 27

000
ASUS41 KAKQ 252315
RWRAKQ

REGIONAL WEATHER ROUNDUP
NATIONAL WEATHER SERVICE WAKEFIELD VA
700 PM EDT TUE JUL 25 2017

Note: "fair" indicates few or no clouds below 12,000 feet with no
significant weather and/or obstructions to visibility. * = Denotes
station may not report precipitation (e.g., rain,snow,etc.),
thunder or fog.

VAZ042-051-052>054-056-260000-
NORTHERN VIRGINIA

CITY           SKY/WX    TMP DP  RH WIND       PRES   REMARKS
WASH NATIONAL  MOSUNNY   80  61  52 NW10      30.13S
DULLES         MOSUNNY   77  58  51 W12       30.14S
FORT BELVOIR   SUNNY     79  60  51 NW9       30.13R
QUANTICO       PTSUNNY   80  61  52 N14       30.14R
FREDERICKSBRG* SUNNY     80  62  54 N6        30.12R
STAFFORD*      SUNNY     77  60  56 N5        30.17R
WARRENTON      SUNNY     78  56  46 N9        30.14S
CULPEPER*      SUNNY     77  61  56 N9        30.15S
MANASSAS*      MOSUNNY   78  60  53 NW10      30.15R
LEESBURG*      SUNNY     77  63  61 NW9       30.16R
WINCHESTER     MOSUNNY   72  57  60 NW5       30.17R
FRONT ROYAL*   CLEAR     75  57  53 N8        30.16R
LURAY*         CLEAR     77  59  53 N10       30.15S
$$

VAZ048-049-060>072-079>083-260000-
CENTRAL AND SOUTH CENTRAL VIRGINIA

CITY           SKY/WX    TMP DP  RH WIND       PRES   REMARKS
RICHMOND       MOSUNNY   82  61  48 N12       30.10R
CHESTERFIELD*  NOT AVBL
PETERSBURG*    SUNNY     84  55  36 CALM      30.09R
HANOVER        SUNNY     81  60  48 VRB3      30.12R
TAPPAHANNOCK*  SUNNY     81  41  23 N6        30.13R
QUINTON*       FAIR      81  62  52 NE6       30.10S
CHARLOTTSVILLE SUNNY     82  61  48 NE10      30.12R
GORDONSVILLE*  CLEAR     79  62  55 NE12      30.13R
ORANGE*        SUNNY     77  59  53 NE8       30.13S
LOUISA*        SUNNY     81  59  47 NE6       30.12R
BUMPASS*       FAIR      80  61  53 N3        30.12S
FARMVILLE*     SUNNY     88  50  27 NE8       30.07R
CREWE*         FAIR      84  55  36 E6        30.08S
FORT PICKETT*  FAIR     N/A N/A N/A N9        30.08S
CHASE CITY*    FAIR      86  64  46 CALM      30.07R
CLARKSVILLE*   FAIR      88  63  42 CALM      30.06R
SOUTH HILL*    MOSUNNY   88  66  47 N3        30.12S
LAWRENCEVILLE* FAIR      84  65  51 E5        30.07R
EMPORIA*       PTSUNNY   84  68  58 E5        30.09R
$$

VAZ088>098-260000-
SOUTHEAST VIRGINIA

CITY           SKY/WX    TMP DP  RH WIND       PRES   REMARKS
NORFOLK        MOSUNNY   80  63  55 NE13      30.09S
VIRGINIA BEACH PTSUNNY   79  62  56 NE6       30.09S
NORFOLK NAVAL  PTSUNNY   81  62  52 NE15      30.12R
WEST POINT*    SUNNY     82  57  42 N6        30.12R
SALUDA*        FAIR      79  65  60 N7        30.11R
NEWPORT NEWS   PTSUNNY   80  62  54 E12       30.10R
LANGLEY AFB    MOSUNNY   79  62  56 NE13      30.10R
FORT EUSTIS    PTSUNNY   86  63  45 N9        30.07R
WILLIAMSBURG*  SUNNY     88  63  42 NE3       30.10R
HR EXEC AP*    NOT AVBL
FRANKLIN*      CLOUDY    79  66  65 NE9G21    30.09R
US460-WAKEFLD  NOT AVBL
$$

VAZ020-022-025-037-045-260000-
WEST CENTRAL AND SOUTHWEST VIRGINIA

CITY           SKY/WX    TMP DP  RH WIND       PRES   REMARKS
STAUNTON*      SUNNY     80  58  46 N9        30.16R
WAYNESBORO*    CLEAR     81  59  48 N8        30.15R
HOT SPRINGS VA MOSUNNY   75  43  31 CALM      30.27R
LYNCHBURG      MOSUNNY   85  59  41 E6        30.10R
DANVILLE       SUNNY     87  65  47 CALM      30.06S
SOUTH BOSTON*  FAIR      88  64  44 SE3       30.06S
MARTINSVILLE   SUNNY     87  64  45 CALM      30.10R
ROANOKE        SUNNY     89  54  30 W9        30.12R
BLACKSBURG     SUNNY     82  54  36 NW7       30.20R
DUBLIN*        SUNNY     84  49  29 N5        30.18R
MARION*        SUNNY     81  55  41 NW5       30.22R
HILLSVILLE*    MOSUNNY   82  47  30 CALM      30.18S
RICHLANDS*     FAIR      78  58  49 CALM      30.21S
WISE*          MOSUNNY   79  63  57 N8        30.22S
ABINGDON*      SUNNY     84  64  51 E7        30.16S
$$

MDZ021>025-VAZ099-100-260000-
SOUTHERN MARYLAND AND THE DELMARVA PENINSULA

CITY           SKY/WX    TMP DP  RH WIND       PRES   REMARKS
PATUXENT RIVER MOSUNNY   78  64  61 N10       30.12R
BAY BRIDGE APT CLOUDY    77  64  65 NE3       30.12R
LEONARDTOWN    CLOUDY    75  63  64 CALM      30.14R
DOVER          CLOUDY    76  76 100 N6        30.11R
GEORGETOWN     MOSUNNY   77  66  68 E7        30.12R
EASTON         PTSUNNY   77  63  61 N5        30.16R
CAMBRIDGE      SUNNY     81  63  54 NW8       30.11R
SALISBURY      MOSUNNY   77  66  68 NE5       30.11R
OCEAN CITY     SUNNY     76  67  73 E8G23     30.11R
WALLOPS ISLAND MOSUNNY   77  68  73 E14       30.11R
ACCOMACK*      CLOUDY    77  67  71 E7        30.11R
$$

NCZ012>017-030>032-260000-
NORTH CENTRAL AND EASTERN NORTH CAROLINA

CITY           SKY/WX    TMP DP  RH WIND       PRES   REMARKS
ROANOKE RAPIDS FAIR      84  72  65 NE5       30.06S
RALEIGH        PTSUNNY   86  64  47 NE5       30.06S
ELIZABETH CITY PTSUNNY   79  67  66 NE15      30.09R
AHOSKIE*         N/A     83  72  70 NE3       30.07R
EDENTON*       PTSUNNY   81  70  68 E10       30.08S
CURRITUCK*     MOSUNNY   79  64  60 NE9       30.10S
KILL DEVIL HLS SUNNY     77  64  64 CALM      30.08S
MANTEO         SUNNY     78  65  63 E9G17     30.09S
CAPE HATTERAS  CLOUDY    79  67  66 NE7G16    30.07F
TARBORO*       NOT AVBL
GOLDSBORO      SUNNY     91  71  50 N7        30.02R HX  97
WASHINGTON     MOSUNNY   84  73  68 SE6       30.06R
GREENVILLE     PTSUNNY   86  72  62 SE8       30.06S
NEW BERN       CLOUDY    82  74  76 E8        30.06R
WILMINGTON     CLOUDY    83  76  79 W3        30.03S
$$

VAZ048-260000-
ELSEWHERE

CITY           SKY/WX    TMP DP  RH WIND       PRES   REMARKS
HARRISBURG PA  CLOUDY    74  60  61 N5        30.15R
BALTIMORE      PTSUNNY   78  63  59 N6        30.13R
ANNAPOLIS      CLOUDY    79  66  64 N6        30.12R
ANDREWS AFB    CLOUDY    77  61  57 N10       30.12R
PHILADELPHIA   CLOUDY    76  62  62 CALM      30.13R
HENDERSON NC   MOSUNNY   85  61  43 NE6       30.07R
GREENSBORO     MOSUNNY   88  65  46 E7        30.07R
ROCKY MOUNT    MOSUNNY   87  74  64 NE5       30.05R HX  95
$$

VAZ100-260000-
MARINE

STATION/POSITION TIME  TEMP    WIND        PRES    WAVE   SWELL
                       AIR SEA DIR/SP/G            HT/PER HT/PER
                 (UTC) (F)     (DEG/KT/KT) (MB)    (FT/S) (FT/S)
BRANDYWINE LGT   2248          110/  9/ 10 1020.3R
CAPE MAY NJ      2242   73 75   90/  7/ 10 1019.4R
LEWES DE         2242   74 78   90/ 10/ 13 1019.6R
15NM E FENWICK I 2250   75 76   40/ 14/ 16 1020.0R   3/ 6   2/ 7
OCEAN-CITY-INLET 2242   76 77   70/  6/ 10 1020.0R
WACHAPREAGUE VA  2242   75 84   60/  9/  9 1019.5R
THOMAS POINT MD  2300   78 82   20/  7/  9   N/A
GOOSES REEF MD   2300   80 83   30/ 10/ 12 1020.6    1/ 2
COVE POINT MD    2242   78      10/ 11/ 13 1020.4R
SOLOMONS ISLAND  2242   78 84   10/  5/  8   N/A
BISHOPS HEAD MD  2242   80 83  330/  7/ 10 1019.6R
PINEY POINT MD   2248          360/  7/  8   N/A
CAMBRIDGE MD     2242   81 86              1020.4R
LEWISETTA VA     2242   80 84   20/  6/  9 1019.5R
RAPPAHANNOCK LGT 2248          360/ 12/ 15 1020.0R
STINGRAY PT      2250   80      40/ 12/ 16 1019.5R
YORK RVR RNG VA  2242   79      50/ 17/ 20 1019.5R
YORKTOWN VA      2242   80 83   60/ 13/ 16 1018.7R
JAMESTOWN VA     2300      87   40/ 10/ 14   N/A     0
DOMINION TERM VA 2242   82      40/  5/ 10 1019.2R
KIPTOPEKE VA     2242      79   40/  7/ 12   N/A
CHES BAY BRIDGE  2242   78 77   20/ 15/ 17 1018.9S
CAPE HENRY VA    2242   77      50/  3/  5   N/A
WILLOUBY STN VA  2242   78      40/ 16/ 18 1019.2R
S CRANEY ISL VA  2242   79      60/ 18/ 20 1018.7R
CAPE HENRY BUOY  2300      73                N/A     2/ 6
1ST LANDING BUOY 2300   79 76              1019.2    2/ 3
64NM E OF VA BCH 2250   76 78   10/ 14/ 16 1019.1S   3/ 5   2/ 8
DUCK PIER NC     2242   76 76   50/ 10/ 11 1018.6R
44100 DUCK FRF   2205      78                N/A     3/ 6
44056 DUCK FRF   2300      75                N/A     3/10
OREGON INLET NC  2248           30/ 10/ 12 1018.4F
HATTERAS NC      2242   78 79   50/ 12/ 15 1018.1F
DIAMOND SHLS NC  2250   79 84   30/ 16/ 17 1017.6F   3/ 6   2/10
CAPE LOOKOUT NC  2300   82     200/  2/  3 1017.2R
$$




USA.gov is the U.S. government's official web portal to all federal, state and local government web resources and services.